When you browse on this site, cookies collect data to enhance your experience and personalize the content and advertising you see.
Visit our Privacy Policy to learn more. By continuing to use the site, you agree to this use of cookies and data.
  • In Lithuania
  • List of Countries
  • For 7 days
  • Water Temperature
  • Satellite Maps
  • Weather Map
  • Weather Widgets
  • user-avatar
    Login

    Hourly Weather Bafoussam

    Today, 21 May, Tuesday

    Time Temperature Precipitation Wind Pressure Humidity
    00:00 +19°C° 0.3 mm 1 mps 644 mmHg 93%
    01:00 +16°C° 0 mm 0 mps 644 mmHg 93%
    02:00 +18°C° 0.3 mm 1 mps 644 mmHg 92%
    03:00 +18°C° 0.3 mm 1 mps 644 mmHg 91%
    04:00 +18°C° 0.3 mm 1 mps 644 mmHg 90%
    05:00 +18°C° 0.2 mm 1 mps 644 mmHg 90%
    06:00 +19°C° 0.2 mm 1 mps 644 mmHg 89%
    07:00 +20°C° 0 mm 1 mps 645 mmHg 86%
    08:00 +22°C° 0.3 mm 1 mps 646 mmHg 79%
    09:00 +24°C° 0.3 mm 1 mps 646 mmHg 72%
    10:00 +26°C° 0.3 mm 1 mps 647 mmHg 65%
    11:00 +26°C° 0.7 mm 1 mps 647 mmHg 65%
    12:00 +26°C° 0.7 mm 2 mps 646 mmHg 65%
    13:00 +27°C° 0.7 mm 2 mps 646 mmHg 65%
    14:00 +27°C° 0.4 mm 2 mps 645 mmHg 65%
    15:00 +26°C° 0.4 mm 2 mps 645 mmHg 66%
    16:00 +26°C° 0.4 mm 2 mps 644 mmHg 67%
    17:00 +24°C° 0.8 mm 1 mps 644 mmHg 73%
    18:00 +22°C° 0.8 mm 1 mps 643 mmHg 80%
    19:00 +18°C° 0.8 mm 0 mps 643 mmHg 86%
    20:00 +20°C° 0.2 mm 1 mps 643 mmHg 86%
    21:00 +19°C° 0.2 mm 1 mps 644 mmHg 87%
    22:00 +19°C° 0.2 mm 1 mps 644 mmHg 88%
    23:00 +19°C° 0 mm 1 mps 644 mmHg 88%

    Tomorrow, 22 May, Wednesday

    Time Temperature Precipitation Wind Pressure Humidity
    00:00 +18°C° 0 mm 1 mps 644 mmHg 87%
    01:00 +18°C° 0 mm 1 mps 643 mmHg 87%
    02:00 +18°C° 0 mm 1 mps 643 mmHg 87%
    03:00 +18°C° 0 mm 1 mps 643 mmHg 86%
    04:00 +18°C° 0 mm 1 mps 643 mmHg 86%
    05:00 +18°C° 0 mm 1 mps 643 mmHg 86%
    06:00 +18°C° 0 mm 1 mps 644 mmHg 85%
    07:00 +19°C° 0 mm 1 mps 644 mmHg 85%
    08:00 +21°C° 0 mm 1 mps 645 mmHg 78%
    09:00 +24°C° 0 mm 1 mps 646 mmHg 71%
    10:00 +26°C° 0 mm 1 mps 647 mmHg 64%
    11:00 +27°C° 0.3 mm 1 mps 647 mmHg 63%
    12:00 +27°C° 0.3 mm 1 mps 646 mmHg 63%
    13:00 +27°C° 0.3 mm 2 mps 646 mmHg 62%
    14:00 +27°C° 0.8 mm 1 mps 645 mmHg 65%
    15:00 +27°C° 0.8 mm 1 mps 645 mmHg 67%
    16:00 +26°C° 0.8 mm 1 mps 644 mmHg 69%
    17:00 +24°C° 1.1 mm 1 mps 644 mmHg 75%
    18:00 +23°C° 1.1 mm 1 mps 644 mmHg 81%
    19:00 +19°C° 1.1 mm 0 mps 643 mmHg 87%
    20:00 +18°C° 1.1 mm 0 mps 644 mmHg 89%
    21:00 +18°C° 1.1 mm 0 mps 644 mmHg 90%
    22:00 +18°C° 1.1 mm 0 mps 644 mmHg 91%
    23:00 +19°C° 0.3 mm 1 mps 644 mmHg 91%

    Day after tomorrow, 23 May, Thursday

    Time Temperature Precipitation Wind Pressure Humidity
    00:00 +19°C° 0.3 mm 1 mps 644 mmHg 90%
    01:00 +19°C° 0.3 mm 1 mps 643 mmHg 90%
    02:00 +19°C° 0 mm 1 mps 643 mmHg 89%
    03:00 +19°C° 0 mm 1 mps 643 mmHg 88%
    04:00 +19°C° 0 mm 1 mps 643 mmHg 87%
    05:00 +19°C° 0.1 mm 1 mps 643 mmHg 87%
    06:00 +19°C° 0.1 mm 1 mps 644 mmHg 86%
    07:00 +20°C° 0.1 mm 1 mps 644 mmHg 85%
    08:00 +20°C° 0.1 mm 0 mps 645 mmHg 79%
    09:00 +22°C° 0.1 mm 0 mps 646 mmHg 73%
    10:00 +24°C° 0.1 mm 0 mps 647 mmHg 67%
    11:00 +26°C° 0.5 mm 1 mps 646 mmHg 66%
    12:00 +27°C° 0.5 mm 1 mps 646 mmHg 65%
    13:00 +28°C° 0.5 mm 1 mps 645 mmHg 64%
    14:00 +27°C° 0.6 mm 1 mps 645 mmHg 66%
    15:00 +27°C° 0.6 mm 1 mps 644 mmHg 68%
    16:00 +26°C° 0.6 mm 1 mps 643 mmHg 70%
    17:00 +25°C° 1.5 mm 1 mps 643 mmHg 76%
    18:00 +23°C° 1.5 mm 1 mps 643 mmHg 83%
    19:00 +19°C° 1.5 mm 0 mps 643 mmHg 90%
    20:00 +21°C° 1.3 mm 1 mps 643 mmHg 91%
    21:00 +20°C° 1.3 mm 1 mps 644 mmHg 91%
    22:00 +20°C° 1.3 mm 1 mps 644 mmHg 92%
    23:00 +20°C° 0.1 mm 1 mps 644 mmHg 93%

    24 May, Friday

    Time Temperature Precipitation Wind Pressure Humidity
    00:00 +20°C° 0.1 mm 1 mps 644 mmHg 94%
    01:00 +20°C° 0.1 mm 1 mps 644 mmHg 95%
    02:00 +20°C° 0.2 mm 1 mps 643 mmHg 94%
    03:00 +20°C° 0.2 mm 1 mps 643 mmHg 94%
    04:00 +19°C° 0.2 mm 1 mps 643 mmHg 93%
    05:00 +20°C° 0.2 mm 1 mps 643 mmHg 92%
    06:00 +20°C° 0.2 mm 1 mps 644 mmHg 91%
    07:00 +20°C° 0.2 mm 1 mps 644 mmHg 89%
    08:00 +22°C° 0.3 mm 1 mps 645 mmHg 82%
    09:00 +24°C° 0.3 mm 1 mps 646 mmHg 75%
    10:00 +24°C° 0.3 mm 0 mps 647 mmHg 68%
    11:00 +27°C° 0.6 mm 1 mps 647 mmHg 67%
    12:00 +27°C° 0.6 mm 1 mps 646 mmHg 66%
    13:00 +28°C° 0.6 mm 1 mps 646 mmHg 65%
    14:00 +27°C° 0.7 mm 1 mps 645 mmHg 67%
    15:00 +27°C° 0.7 mm 1 mps 644 mmHg 68%
    16:00 +26°C° 0.7 mm 1 mps 643 mmHg 70%
    17:00 +24°C° 1.1 mm 1 mps 643 mmHg 77%
    18:00 +23°C° 1.1 mm 1 mps 643 mmHg 84%
    19:00 +21°C° 1.1 mm 1 mps 643 mmHg 90%
    20:00 +20°C° 0.8 mm 1 mps 644 mmHg 90%
    21:00 +20°C° 0.8 mm 1 mps 644 mmHg 90%
    22:00 +20°C° 0.8 mm 1 mps 644 mmHg 90%
    23:00 +20°C° 0.1 mm 1 mps 644 mmHg 91%

    25 May, Saturday

    Time Temperature Precipitation Wind Pressure Humidity
    00:00 +19°C° 0.1 mm 1 mps 644 mmHg 91%
    01:00 +19°C° 0.1 mm 1 mps 643 mmHg 92%
    02:00 +19°C° 0.2 mm 1 mps 643 mmHg 91%
    03:00 +17°C° 0.2 mm 0 mps 643 mmHg 89%
    04:00 +17°C° 0.2 mm 0 mps 643 mmHg 88%
    05:00 +17°C° 0.1 mm 0 mps 643 mmHg 87%
    06:00 +19°C° 0.1 mm 1 mps 644 mmHg 86%
    07:00 +19°C° 0.1 mm 1 mps 644 mmHg 85%
    08:00 +21°C° 0.1 mm 1 mps 645 mmHg 81%
    09:00 +22°C° 0.1 mm 1 mps 646 mmHg 77%
    10:00 +24°C° 0.1 mm 1 mps 647 mmHg 72%
    11:00 +25°C° 0.3 mm 1 mps 646 mmHg 69%
    12:00 +26°C° 0.3 mm 1 mps 646 mmHg 66%
    13:00 +26°C° 0.3 mm 1 mps 645 mmHg 64%
    14:00 +27°C° 0.2 mm 1 mps 645 mmHg 63%
    15:00 +27°C° 0.2 mm 1 mps 644 mmHg 62%
    16:00 +27°C° 0.2 mm 1 mps 644 mmHg 61%
    17:00 +23°C° 0.3 mm 0 mps 643 mmHg 69%
    18:00 +21°C° 0.3 mm 0 mps 643 mmHg 76%
    19:00 +19°C° 0.3 mm 0 mps 643 mmHg 83%
    20:00 +18°C° 0.6 mm 0 mps 643 mmHg 84%
    21:00 +18°C° 0.6 mm 0 mps 644 mmHg 85%
    22:00 +18°C° 0.6 mm 0 mps 644 mmHg 86%
    23:00 +19°C° 0.3 mm 1 mps 644 mmHg 86%

    26 May, Sunday

    Time Temperature Precipitation Wind Pressure Humidity
    00:00 +19°C° 0.3 mm 1 mps 643 mmHg 87%
    01:00 +19°C° 0.3 mm 1 mps 643 mmHg 87%
    02:00 +19°C° 0.1 mm 1 mps 643 mmHg 86%
    03:00 +19°C° 0.1 mm 1 mps 643 mmHg 85%
    04:00 +19°C° 0.1 mm 1 mps 642 mmHg 83%
    05:00 +19°C° 0 mm 1 mps 643 mmHg 83%
    06:00 +19°C° 0 mm 1 mps 644 mmHg 82%
    07:00 +20°C° 0 mm 1 mps 644 mmHg 82%
    08:00 +22°C° 0.1 mm 1 mps 645 mmHg 76%
    09:00 +22°C° 0.1 mm 0 mps 646 mmHg 71%
    10:00 +24°C° 0.1 mm 0 mps 647 mmHg 66%
    11:00 +26°C° 0.6 mm 1 mps 646 mmHg 67%
    12:00 +26°C° 0.6 mm 1 mps 646 mmHg 68%
    13:00 +26°C° 0.6 mm 2 mps 645 mmHg 69%
    14:00 +25°C° 1 mm 2 mps 644 mmHg 74%
    15:00 +25°C° 1 mm 2 mps 644 mmHg 79%
    16:00 +24°C° 1 mm 1 mps 643 mmHg 84%
    17:00 +23°C° 0.4 mm 1 mps 643 mmHg 86%
    18:00 +21°C° 0.4 mm 1 mps 643 mmHg 88%
    19:00 +18°C° 0.4 mm 0 mps 643 mmHg 90%
    20:00 +18°C° 0.1 mm 0 mps 643 mmHg 89%
    21:00 +18°C° 0.1 mm 0 mps 644 mmHg 89%
    22:00 +17°C° 0.1 mm 0 mps 644 mmHg 88%
    23:00 +17°C° 0.1 mm 0 mps 644 mmHg 89%
    Show more